Location: Central Coast
(33.3208°S, 151.2336°E)
Time: 14:40:22
(UTC+11:00)

Vanguard 1 Rocket - Visible Passes

Search period start: 13 December 2017 00:00
Search period end: 23 December 2017 00:00
Orbit: 656 x 4222 km, 34.3° (Epoch: 12 December)

Date Brightness Start Highest point End Pass type
(mag) Time Alt. Az. Time Alt. Az. Time Alt. Az.
13 Dec 10.7 02:34:37 25° N 02:41:44 30° NNE 02:54:05 10° E visible
13 Dec 9.6 04:51:56 10° NW 05:11:17 61° NNE 05:21:11 10° E visible
14 Dec 11.1 01:27:03 20° NE 01:27:56 20° NE 01:39:54 10° ENE visible
14 Dec 10.1 03:44:18 22° NNW 03:58:19 49° NNE 04:10:07 10° E visible
15 Dec 11.5 00:19:26 10° ENE 00:19:26 10° ENE 00:20:04 10° ENE visible
15 Dec 10.5 02:36:40 30° N 02:44:49 38° NNE 02:58:15 10° E visible
15 Dec 9.6 04:54:12 10° WNW 05:14:28 71° NNE 05:24:40 10° ESE visible
16 Dec 10.9 01:28:58 27° NNE 01:30:56 27° NE 01:45:02 10° E visible
16 Dec 10.0 03:46:12 23° NW 04:01:24 58° NNE 04:13:41 10° E visible
17 Dec 11.3 00:21:11 17° NE 00:21:11 17° NE 00:29:02 10° ENE visible
17 Dec 10.4 02:38:24 34° NNW 02:47:47 46° NNE 03:02:04 10° E visible
17 Dec 9.6 04:56:42 10° WNW 05:17:38 79° NNE 05:28:07 10° ESE visible
18 Dec 10.7 01:30:31 34° NNE 01:33:48 35° NE 01:49:25 10° E visible
18 Dec 9.9 03:47:44 23° NW 04:04:27 68° NNE 04:17:10 10° ESE visible
19 Dec 11.1 00:22:33 24° NE 00:22:33 24° NE 00:34:52 10° E visible
19 Dec 10.2 02:39:45 36° NNW 02:50:41 55° NNE 03:05:40 10° ESE visible
19 Dec 9.6 04:59:24 10° WNW 05:20:50 86° NNE 05:31:33 10° E visible
19 Dec 11.5 23:14:28 11° ENE 23:14:28 11° ENE 23:15:46 10° ENE visible
20 Dec 10.6 01:31:39 40° NNE 01:36:34 43° NE 01:53:19 10° E visible
20 Dec 9.9 03:48:50 20° WNW 04:07:29 76° NNE 04:20:34 10° ESE visible
21 Dec 10.9 00:23:27 31° NE 00:23:27 31° NE 00:39:35 10° E visible
21 Dec 10.2 02:40:37 35° NW 02:53:34 64° NNE 03:09:08 10° ESE visible
21 Dec 9.7 05:02:14 10° WNW 05:24:03 89° SSW 05:34:59 10° E visible
21 Dec 11.3 23:15:05 18° ENE 23:15:05 18° ENE 23:23:06 10° E visible
22 Dec 10.4 01:32:15 44° N 01:39:15 51° NNE 01:56:58 10° ESE visible
22 Dec 9.9 03:49:24 16° WNW 04:10:33 83° NNE 04:23:58 10° ESE visible
